{"data":{"norad_id":54145,"intl_designator":"2022-138AJ","name":"ONEWEB-0529","alt_names":[],"object_type":"PAYLOAD","status":"ACTIVE","operator":null,"country":"UK","launch_date":"2022-10-22","launch_site_code":"SRILR","launch_vehicle":null,"mission":null,"orbit_class":"UNKNOWN","rcs_meters":null,"size_class":null,"mass_kg":null,"dimensions":null,"purposes":["comms"],"wikipedia_slug":null,"has_3d_model":false,"image_url":null,"decayed_at":null,"tle_current":{"epoch":"2026-09-20T01:04:11.529696Z","epoch_age_seconds":61347,"freshness":"FRESH","line1":"1 54145U 22138AJ  26263.04457789  .00000004  00000+0 -22511-4 0  9997","line2":"2 54145  87.9103 286.0732 0001884  85.0118 275.1230 13.19725586189332","mean_motion":13.19725586,"eccentricity":0.0001884,"inclination_deg":87.9103,"raan_deg":286.0732,"arg_perigee_deg":85.0118,"mean_anomaly_deg":275.123,"bstar":-2.2511e-5,"rev_number":18933,"period_min":109.11359264956,"perigee_km":1184.3432731601,"apogee_km":1187.1933526821,"semimajor_km":7563.9053129211,"source":"CELESTRAK","updated_at":"2026-09-20T09:00:44.721999Z"}}}